When you browse on this site, cookies collect data to enhance your experience and personalize the content and advertising you see.
Visit our Privacy Policy to learn more. By continuing to use the site, you agree to this use of cookies and data.
  • In Hungary
  • List of Countries
  • For 7 days
  • Water Temperature
  • Weather Map
  • News
  • Weather Widgets
  • user-avatar
    Login

    Hourly Weather Kozyrevo

    Today, 28 January, Tuesday

    Time Temperature Precipitation Wind Pressure Humidity
    00:00 -2°C° 0.3 mm 2 mps 735 mmHg 98%
    01:00 -2°C° 0.3 mm 2 mps 735 mmHg 98%
    02:00 -2°C° 0 mm 2 mps 735 mmHg 97%
    03:00 -2°C° 0.1 mm 2 mps 734 mmHg 97%
    04:00 -2°C° 0.1 mm 2 mps 734 mmHg 97%
    05:00 -2°C° 0.1 mm 2 mps 734 mmHg 97%
    06:00 -3°C° 0 mm 2 mps 734 mmHg 97%
    07:00 -1°C° 0 mm 1 mps 734 mmHg 97%
    08:00 -1°C° 0 mm 1 mps 734 mmHg 97%
    09:00 -3°C° 0 mm 2 mps 734 mmHg 94%
    10:00 -2°C° 0 mm 2 mps 734 mmHg 92%
    11:00 -2°C° 0 mm 2 mps 734 mmHg 89%
    12:00 -2°C° 0 mm 2 mps 733 mmHg 90%
    13:00 -2°C° 0 mm 2 mps 733 mmHg 90%
    14:00 -2°C° 0 mm 2 mps 733 mmHg 89%
    15:00 -2°C° 0 mm 2 mps 733 mmHg 90%
    16:00 -2°C° 0 mm 2 mps 733 mmHg 92%
    17:00 -2°C° 0 mm 2 mps 732 mmHg 94%
    18:00 -2°C° 0 mm 2 mps 732 mmHg 94%
    19:00 -2°C° 0 mm 2 mps 732 mmHg 95%
    20:00 -2°C° 0 mm 2 mps 733 mmHg 95%
    21:00 -2°C° 0.1 mm 3 mps 732 mmHg 95%
    22:00 -2°C° 0.1 mm 3 mps 732 mmHg 96%
    23:00 -1°C° 0.1 mm 3 mps 732 mmHg 96%

    Tomorrow, 29 January, Wednesday

    Time Temperature Precipitation Wind Pressure Humidity
    00:00 -1°C° 0.2 mm 3 mps 731 mmHg 96%
    01:00 -1°C° 0.2 mm 3 mps 731 mmHg 96%
    02:00 -1°C° 0.2 mm 3 mps 731 mmHg 96%
    03:00 -1°C° 0 mm 3 mps 731 mmHg 95%
    04:00 -3°C° 0 mm 4 mps 730 mmHg 93%
    05:00 -3°C° 0 mm 4 mps 730 mmHg 92%
    06:00 -3°C° 0 mm 4 mps 730 mmHg 92%
    07:00 -3°C° 0 mm 4 mps 730 mmHg 93%
    08:00 -3°C° 0 mm 4 mps 730 mmHg 94%
    09:00 -3°C° 0 mm 4 mps 730 mmHg 92%
    10:00 -2°C° 0 mm 4 mps 729 mmHg 90%
    11:00 -2°C° 0 mm 4 mps 729 mmHg 88%
    12:00 -1°C° 0 mm 4 mps 729 mmHg 88%
    13:00 -1°C° 0 mm 4 mps 729 mmHg 88%
    14:00 -1°C° 0 mm 4 mps 729 mmHg 88%
    15:00 -1°C° 0 mm 4 mps 728 mmHg 91%
    16:00 -1°C° 0 mm 4 mps 728 mmHg 94%
    17:00 -1°C° 0 mm 4 mps 727 mmHg 96%
    18:00 -1°C° 0 mm 4 mps 727 mmHg 95%
    19:00 -1°C° 0 mm 4 mps 727 mmHg 95%
    20:00 -1°C° 0 mm 5 mps 727 mmHg 94%
    21:00 -1°C° 0 mm 5 mps 726 mmHg 94%
    22:00 -1°C° 0 mm 5 mps 726 mmHg 95%
    23:00 -1°C° 0 mm 5 mps 725 mmHg 96%

    Day after tomorrow, 30 January, Thursday

    Time Temperature Precipitation Wind Pressure Humidity
    00:00 -1°C° 0.1 mm 5 mps 725 mmHg 96%
    01:00 -1°C° 0.1 mm 5 mps 724 mmHg 97%
    02:00 -1°C° 0.1 mm 5 mps 724 mmHg 97%
    03:00 -1°C° 0.2 mm 5 mps 723 mmHg 97%
    04:00 -1°C° 0.2 mm 5 mps 723 mmHg 97%
    05:00 -1°C° 0.2 mm 5 mps 722 mmHg 97%
    06:00 -1°C° 0.6 mm 5 mps 722 mmHg 97%
    07:00 -1°C° 0.6 mm 5 mps 722 mmHg 97%
    08:00 -1°C° 0.6 mm 5 mps 722 mmHg 97%
    09:00 -1°C° 0.6 mm 4 mps 721 mmHg 97%
    10:00 -1°C° 0.6 mm 4 mps 721 mmHg 97%
    11:00 -1°C° 0.6 mm 4 mps 721 mmHg 97%
    12:00 0°C° 0.2 mm 3 mps 721 mmHg 94%
    13:00 -1°C° 0.2 mm 3 mps 721 mmHg 90%
    14:00 -1°C° 0.2 mm 3 mps 721 mmHg 87%
    15:00 -1°C° 0 mm 3 mps 722 mmHg 89%
    16:00 -2°C° 0 mm 2 mps 722 mmHg 90%
    17:00 -2°C° 0 mm 2 mps 722 mmHg 92%
    18:00 -2°C° 0 mm 2 mps 722 mmHg 93%
    19:00 -3°C° 0 mm 2 mps 723 mmHg 94%
    20:00 -3°C° 0 mm 2 mps 723 mmHg 95%
    21:00 -3°C° 0 mm 2 mps 723 mmHg 95%
    22:00 -3°C° 0 mm 2 mps 723 mmHg 95%
    23:00 -1°C° 0 mm 1 mps 723 mmHg 95%

    31 January, Friday

    Time Temperature Precipitation Wind Pressure Humidity
    00:00 -1°C° 0 mm 1 mps 724 mmHg 95%
    01:00 -1°C° 0 mm 1 mps 724 mmHg 95%
    02:00 -1°C° 0 mm 1 mps 725 mmHg 95%
    03:00 -1°C° 0.2 mm 1 mps 725 mmHg 96%
    04:00 -1°C° 0.2 mm 1 mps 725 mmHg 96%
    05:00 -2°C° 0.2 mm 2 mps 725 mmHg 96%
    06:00 -2°C° 0.2 mm 2 mps 725 mmHg 96%
    07:00 -2°C° 0.2 mm 2 mps 725 mmHg 96%
    08:00 -2°C° 0.2 mm 2 mps 725 mmHg 97%
    09:00 -2°C° 0.1 mm 2 mps 725 mmHg 96%
    10:00 -2°C° 0.1 mm 2 mps 725 mmHg 94%
    11:00 -2°C° 0.1 mm 2 mps 726 mmHg 93%
    12:00 -1°C° 0.1 mm 2 mps 726 mmHg 93%
    13:00 -1°C° 0.1 mm 2 mps 726 mmHg 92%
    14:00 -1°C° 0.1 mm 2 mps 726 mmHg 91%
    15:00 -1°C° 0 mm 2 mps 727 mmHg 92%
    16:00 -2°C° 0 mm 2 mps 727 mmHg 94%
    17:00 0°C° 0 mm 1 mps 727 mmHg 95%
    18:00 0°C° 0 mm 1 mps 728 mmHg 94%
    19:00 -1°C° 0 mm 1 mps 728 mmHg 94%
    20:00 -1°C° 0 mm 1 mps 729 mmHg 94%
    21:00 -1°C° 0 mm 1 mps 729 mmHg 94%
    22:00 -1°C° 0 mm 1 mps 729 mmHg 95%
    23:00 -1°C° 0 mm 1 mps 730 mmHg 96%

    1 February, Saturday

    Time Temperature Precipitation Wind Pressure Humidity
    00:00 -1°C° 0 mm 1 mps 730 mmHg 96%
    01:00 -1°C° 0 mm 1 mps 730 mmHg 96%
    02:00 -2°C° 0 mm 1 mps 731 mmHg 96%
    03:00 -2°C° 0 mm 1 mps 731 mmHg 96%
    04:00 -2°C° 0 mm 1 mps 731 mmHg 96%
    05:00 -1°C° 0 mm 1 mps 731 mmHg 96%
    06:00 -1°C° 0 mm 1 mps 731 mmHg 96%
    07:00 -1°C° 0 mm 1 mps 731 mmHg 96%
    08:00 -1°C° 0 mm 1 mps 732 mmHg 96%
    09:00 -1°C° 0 mm 1 mps 732 mmHg 92%
    10:00 -2°C° 0 mm 2 mps 732 mmHg 88%
    11:00 -2°C° 0 mm 2 mps 732 mmHg 83%
    12:00 -1°C° 0 mm 3 mps 732 mmHg 83%
    13:00 -1°C° 0 mm 3 mps 731 mmHg 82%
    14:00 -1°C° 0 mm 3 mps 731 mmHg 81%
    15:00 -2°C° 0 mm 4 mps 731 mmHg 85%
    16:00 -3°C° 0 mm 4 mps 731 mmHg 89%
    17:00 -3°C° 0 mm 4 mps 731 mmHg 93%
    18:00 -3°C° 0.1 mm 4 mps 730 mmHg 94%
    19:00 -2°C° 0.1 mm 4 mps 730 mmHg 95%
    20:00 -2°C° 0.1 mm 4 mps 730 mmHg 96%
    21:00 -2°C° 0.2 mm 4 mps 730 mmHg 96%
    22:00 -1°C° 0.2 mm 5 mps 729 mmHg 96%
    23:00 -1°C° 0.2 mm 5 mps 729 mmHg 97%

    2 February, Sunday

    Time Temperature Precipitation Wind Pressure Humidity
    00:00 -1°C° 0.2 mm 5 mps 729 mmHg 96%
    01:00 -1°C° 0.2 mm 5 mps 728 mmHg 96%
    02:00 -1°C° 0.2 mm 4 mps 728 mmHg 96%
    03:00 0°C° 0.2 mm 5 mps 728 mmHg 96%
    04:00 0°C° 0.2 mm 5 mps 727 mmHg 96%
    05:00 0°C° 0.2 mm 5 mps 727 mmHg 96%
    06:00 0°C° 0.1 mm 5 mps 726 mmHg 96%
    07:00 0°C° 0.1 mm 5 mps 726 mmHg 96%
    08:00 0°C° 0.1 mm 5 mps 726 mmHg 96%
    09:00 0°C° 0.6 mm 5 mps 725 mmHg 96%
    10:00 0°C° 0.6 mm 5 mps 725 mmHg 96%
    11:00 +1°C° 0.6 mm 6 mps 725 mmHg 96%
    12:00 +1°C° 0.7 mm 6 mps 724 mmHg 96%
    13:00 +1°C° 0.7 mm 5 mps 724 mmHg 96%
    14:00 +1°C° 0.7 mm 5 mps 723 mmHg 96%
    15:00 +1°C° 0.9 mm 5 mps 723 mmHg 97%
    16:00 +1°C° 0.9 mm 5 mps 722 mmHg 97%
    17:00 +1°C° 0.9 mm 5 mps 722 mmHg 97%
    18:00 +1°C° 0.7 mm 5 mps 722 mmHg 97%
    19:00 +1°C° 0.7 mm 5 mps 722 mmHg 96%
    20:00 +2°C° 0.7 mm 5 mps 722 mmHg 96%
    21:00 +2°C° 0.4 mm 5 mps 723 mmHg 95%
    22:00 +2°C° 0.4 mm 6 mps 723 mmHg 94%
    23:00 +2°C° 0.4 mm 6 mps 723 mmHg 93%
    Show more